RH
67 68 68 69 70 71 72 73 74 76 77 77 75 76 78 79 65 34 44 52 59 63 70 54 37 22 26 28 30 34 38 42 36 36 32 24 27 31 33 35 33 30 31 24 23
67 68 69 69 70 72 72 73 75 76 76 78 75 77 79 77 53 45 47 51 54 64 36 28 22 21 28 30 32 38 43 38 29 30 26 25 25 34 38 37 34 28 23 21 21
68 68 69 70 70 72 73 74 75 76 75 77 77 78 82 72 48 38 57 50 60 63 37 30 28 24 31 33 34 39 38 26 22 22 21 24 31 29 38 42 38 28 24 22 22
68 69 69 69 70 72 73 74 75 75 74 75 78 80 79 51 40 35 57 58 62 54 33 28 26 31 37 38 31 34 28 24 27 23 23 30 35 43 43 40 26 22 21 21 23
71 70 69 68 69 72 74 74 75 74 73 75 78 79 53 34 40 30 55 46 31 29 33 31 29 33 36 32 28 33 31 25 26 28 33 33 42 44 42 31 23 20 20 21 24
74 72 70 68 68 71 73 75 74 74 72 74 75 69 44 39 34 30 35 36 32 31 33 31 31 31 28 29 34 30 28 26 28 31 32 39 44 36 43 31 24 21 22 23 23
77 74 72 68 68 70 72 75 74 73 73 75 72 39 35 41 30 31 32 33 31 37 34 34 35 27 30 33 28 29 32 30 34 32 35 32 40 40 41 32 26 23 24 23 24
80 76 73 69 68 69 72 75 74 73 73 72 69 42 41 35 33 32 33 32 27 26 31 31 30 31 30 33 28 31 34 41 30 30 31 30 43 36 34 37 30 25 27 24 24
82 80 74 71 68 68 71 74 75 72 70 64 47 42 38 37 36 33 35 36 37 32 26 21 29 34 32 40 39 37 38 41 39 29 31 31 48 38 34 37 34 28 27 26 26
78 80 76 72 69 68 72 73 73 65 58 37 22 33 32 38 41 38 36 37 34 35 35 34 38 41 41 45 34 40 39 37 38 30 33 38 44 43 38 37 33 29 28 28 27
77 80 77 74 68 66 80 78 51 56 51 50 45 36 35 36 40 41 41 39 35 31 31 39 34 36 35 37 28 28 32 35 37 35 32 35 40 45 40 37 35 32 29 29 28
83 81 78 74 67 65 81 76 49 47 51 48 46 46 40 43 38 41 39 34 35 32 32 28 42 40 33 30 28 28 34 46 43 34 37 34 37 44 41 38 35 31 32 30 30
86 84 80 73 66 76 81 61 50 52 55 52 47 43 43 45 44 46 43 34 29 28 38 32 41 35 30 31 27 46 37 43 38 42 36 41 44 43 41 38 34 31 30 32 32
87 86 81 72 69 75 66 52 48 52 85 61 47 49 46 45 49 41 42 37 37 29 46 46 43 35 35 34 36 34 40 42 46 39 49 38 59 51 39 40 35 34 35 34 34
87 86 81 67 75 62 47 56 51 62 72 52 55 50 47 42 47 44 43 41 36 41 34 41 49 43 43 46 46 43 42 45 45 49 47 49 59 34 42 43 38 38 38 37 34
87 86 81 76 86 65 57 54 65 80 82 70 58 56 50 50 49 48 46 39 35 42 46 52 45 52 53 50 48 42 42 45 59 56 72 46 47 38 53 38 38 36 37 36 32
88 85 81 69 64 56 63 65 74 86 61 74 69 55 52 57 52 47 44 46 47 43 50 52 56 51 47 50 46 45 60 84 72 74 67 49 48 37 34 36 35 33 36 35 29
90 86 77 59 61 70 71 80 66 70 81 66 65 58 56 52 56 50 44 38 37 46 60 56 60 57 50 48 49 55 64 75 52 92 83 40 66 40 32 33 33 30 33 31 31
92 96 91 75 63 79 68 78 55 82 74 69 62 73 72 55 56 51 49 46 36 41 42 57 59 55 52 49 46 50 61 53 78 95 74 54 44 33 39 38 37 36 33 31 32
97 98 95 75 71 80 94 51 58 69 60 59 60 72 77 76 60 54 54 44 37 40 40 42 68 57 56 51 54 50 39 48 80 48 75 76 49 34 40 42 40 37 33 33 36
96 99 95 73 77 93 81 68 48 55 51 56 67 87 74 75 67 65 58 45 35 44 31 46 58 64 56 59 57 61 68 70 55 76 80 86 65 38 31 40 41 36 32 32 38
98 100 95 76 95 99 80 61 53 56 57 53 62 76 76 75 79 65 59 45 38 36 40 46 70 84 63 49 46 51 48 58 74 58 74 87 53 32 37 40 36 36 32 32 40
98 100 97 85 98 91 68 53 40 62 64 59 65 64 74 76 75 69 60 56 49 39 46 52 69 80 70 53 47 49 51 54 82 84 72 68 49 36 36 47 43 45 40 40 50
99 98 100 100 100 84 62 61 44 56 62 60 61 64 76 83 78 82 65 67 67 57 54 61 79 62 46 56 55 53 49 50 61 79 75 58 46 37 34 42 48 49 39 44 49
100 99 95 97 98 95 59 55 44 58 56 59 66 64 66 85 88 86 80 69 64 59 61 54 54 78 83 51 54 48 48 54 58 47 55 40 52 44 59 60 64 56 47 48 54
99 99 100 98 77 93 78 59 45 45 51 69 61 66 72 77 66 83 81 81 64 82 70 74 63 70 63 59 50 56 46 56 50 59 56 45 50 39 47 58 68 69 59 52 64
100 99 98 96 93 95 86 66 48 39 46 34 51 59 67 68 76 59 68 71 75 79 78 73 76 76 69 63 81 85 45 42 59 71 56 56 44 44 56 62 70 72 65 62 67
Wind_Speed
4 5 6 7 8 9 10 10 10 11 10 10 11 13 15 16 12 5 6 6 8 17 15 8 4 5 2 4 4 3 7 4 8 9 6 5 6 5 3 8 5 5 5 6 5
4 4 6 7 8 9 9 10 11 11 10 10 11 12 15 14 2 8 3 11 12 13 6 7 5 7 5 6 5 7 6 2 2 8 10 6 8 8 6 5 6 6 6 8 7
4 3 5 6 7 8 10 10 10 10 10 10 10 12 13 8 1 3 12 15 13 9 5 2 2 2 6 6 6 4 5 2 7 10 11 11 6 3 13 5 2 7 7 6 7
5 4 4 6 7 7 9 10 10 9 9 10 10 12 12 2 2 4 14 16 16 7 4 2 1 4 5 4 5 9 7 6 2 6 8 6 5 6 4 6 8 8 7 6 7
7 5 4 5 7 8 9 9 10 9 8 9 10 10 4 3 1 6 13 11 8 5 2 2 4 5 6 7 9 9 3 7 8 11 9 12 6 7 5 7 9 9 8 7 7
8 7 4 5 6 8 8 9 9 9 8 9 9 8 1 1 4 7 8 8 7 4 5 7 3 6 8 5 6 6 9 6 8 8 5 10 4 5 5 7 8 8 7 7 7
10 8 6 4 6 7 9 9 9 9 9 9 7 2 4 1 4 7 7 4 6 2 4 5 1 7 5 8 6 10 10 7 4 3 4 10 2 3 7 8 8 8 7 6 6
11 9 7 5 5 7 8 10 9 9 9 8 7 1 2 1 3 5 7 4 6 5 4 4 9 9 6 7 5 6 5 5 5 5 5 4 4 5 9 9 9 8 7 6 5
12 10 8 6 5 5 8 9 11 10 9 7 2 2 1 3 2 4 3 2 5 2 4 3 7 5 5 7 5 1 3 4 2 6 5 5 3 6 9 9 9 9 9 8 6
14 13 10 7 5 5 8 10 7 7 3 3 1 4 0 1 2 3 3 3 2 1 4 3 6 5 2 4 6 7 4 3 6 6 5 5 3 6 9 9 11 10 9 9 8
16 14 12 9 5 4 5 2 5 4 8 1 2 4 3 1 1 3 2 4 1 2 4 1 6 6 12 6 1 6 5 7 2 2 5 8 6 10 10 8 9 9 9 9 8
16 16 13 9 5 1 2 2 3 5 5 0 2 3 2 1 2 2 6 2 2 3 3 5 3 3 5 3 1 2 5 3 2 2 2 5 9 10 12 11 10 11 9 9 7
19 17 14 9 4 2 4 3 1 2 4 2 1 3 3 3 2 1 3 1 2 3 2 6 2 1 3 3 5 3 6 5 4 2 2 2 9 8 10 7 8 9 10 8 10
21 19 16 12 2 4 4 5 4 1 5 5 4 3 3 2 2 2 3 1 2 5 4 4 1 2 4 4 3 4 3 6 9 5 4 4 7 5 12 15 13 9 9 10 9
23 22 20 15 1 4 4 8 6 5 1 3 3 1 1 4 6 3 2 1 5 3 5 2 3 2 2 2 2 3 2 6 4 2 3 2 2 8 6 12 17 12 11 10 9
25 24 21 9 1 4 2 6 6 8 10 3 5 5 6 1 2 3 1 4 4 5 7 3 0 3 3 3 1 6 7 8 6 3 3 5 6 7 7 13 8 9 13 13 10
27 26 17 7 4 5 3 5 7 7 4 7 7 8 4 5 4 4 5 4 7 6 2 2 2 2 4 7 7 3 6 4 5 4 8 3 4 11 8 9 12 19 16 13 13
30 27 14 4 2 5 3 6 7 6 9 3 5 9 7 6 3 6 7 4 6 3 5 7 4 8 3 4 8 6 6 8 9 4 4 4 8 10 6 9 7 12 15 15 13
32 10 9 5 5 3 5 8 11 9 10 11 5 6 3 4 7 4 9 8 10 11 8 6 1 1 4 3 3 6 4 4 8 2 5 5 8 12 3 2 4 12 16 16 14
11 9 8 14 9 4 3 16 6 7 9 5 9 5 10 9 8 8 11 7 7 11 3 8 6 1 1 1 1 2 4 4 4 2 5 5 5 9 7 9 7 12 17 15 13
8 7 9 15 6 4 13 9 5 5 6 9 8 7 6 11 8 7 10 3 8 6 7 6 7 1 2 8 9 2 2 1 3 5 6 3 8 8 11 13 17 16 17 18 16
8 5 11 15 7 4 12 9 5 6 3 5 5 5 10 11 8 7 13 5 10 10 11 3 7 5 8 2 2 4 6 7 7 6 3 4 11 3 2 8 13 14 14 14 14
7 5 2 8 12 13 5 7 4 8 7 7 8 4 4 10 5 7 8 0 6 10 13 10 1 4 6 4 2 7 7 5 4 3 7 5 9 2 2 2 9 12 13 13 14
5 7 2 3 2 22 22 11 16 8 6 6 6 5 5 3 0 8 5 1 4 4 6 7 4 9 11 6 7 7 8 11 8 4 5 13 13 13 7 9 8 10 13 14 16
3 4 7 12 17 17 23 15 18 14 10 10 5 9 11 6 3 4 3 2 5 2 3 6 7 5 4 3 4 4 6 17 15 21 10 18 14 26 13 14 14 14 11 14 16
4 5 2 3 12 19 18 22 31 27 19 11 11 13 8 10 11 11 9 5 7 1 5 1 2 3 3 4 3 4 8 12 19 7 16 21 24 2 8 6 8 13 16 19 19
1 2 2 10 15 19 23 36 40 25 16 25 19 14 14 7 5 7 5 10 8 13 8 7 7 4 6 2 3 6 19 17 8 7 13 16 31 6 9 12 13 14 19 21 21
Wind_Direction
289 312 324 334 339 340 345 342 345 342 343 345 345 340 333 337 324 34 45 308 306 308 313 269 347 308 10 16 14 70 77 148 172 146 160 139 96 19 22 76 49 62 98 134 83
265 302 325 330 330 333 338 342 341 337 337 345 343 340 334 341 315 58 301 327 311 311 328 32 24 353 30 5 6 69 91 90 207 150 144 114 119 132 86 80 73 76 69 81 68
245 284 308 312 321 328 335 338 335 336 334 337 341 335 328 325 21 9 341 334 313 306 269 306 288 138 60 19 337 49 115 143 11 100 113 127 73 40 130 59 144 147 123 97 77
230 253 289 302 315 320 326 332 331 332 335 330 337 331 318 303 189 331 344 327 313 292 275 287 11 76 81 48 332 94 53 80 39 84 90 94 86 68 33 138 132 121 115 100 85
226 225 263 293 308 315 324 327 325 324 331 320 336 333 334 67 330 319 335 326 331 314 12 44 86 98 110 110 56 71 78 50 88 81 74 82 87 125 100 118 108 102 91 98 93
212 220 241 278 297 309 318 321 321 320 317 317 330 327 343 57 289 330 332 340 4 25 5 32 94 111 78 58 80 106 87 84 64 81 91 109 137 85 205 145 133 119 120 109 102
210 213 219 254 291 302 314 314 316 312 309 313 325 315 65 136 314 330 352 346 350 10 63 0 26 77 113 81 108 105 76 40 99 119 126 122 118 132 173 154 145 137 141 131 130
201 201 221 242 272 299 311 308 305 298 297 302 315 350 111 240 313 357 342 27 18 23 81 28 60 88 85 115 64 77 84 116 243 139 169 103 251 194 179 153 172 166 166 156 150
192 186 209 227 253 288 299 300 297 287 283 289 337 106 10 322 46 317 30 30 308 44 34 42 68 83 52 99 56 290 181 137 231 197 152 164 235 202 175 169 186 185 183 173 168
198 180 194 217 251 283 299 291 288 322 265 269 285 49 353 184 301 318 331 324 79 97 62 68 69 93 56 83 189 189 206 146 175 224 154 194 226 204 196 180 188 192 188 181 172
195 184 186 200 222 286 341 355 52 6 40 293 132 120 137 60 63 17 348 351 235 29 118 45 91 184 197 201 126 172 145 130 131 104 156 221 218 207 213 204 193 197 189 186 176
185 180 185 193 197 238 75 237 211 161 117 50 90 65 71 72 112 23 19 129 133 132 96 35 185 179 136 162 106 30 123 97 54 156 155 227 241 207 206 214 192 189 191 183 169
177 173 177 174 161 116 169 218 222 165 95 181 182 176 171 141 81 173 5 105 116 120 146 152 171 173 148 138 125 36 158 180 158 141 348 315 285 197 228 205 197 199 185 173 166
171 166 164 149 140 181 206 210 153 301 68 215 218 208 147 162 72 302 355 99 65 140 111 102 255 181 142 119 112 147 320 129 132 118 210 130 275 240 207 207 211 194 168 168 164
170 163 161 164 290 174 218 143 131 59 12 154 153 61 56 148 133 353 299 342 130 86 108 191 143 133 110 90 21 168 117 126 125 103 69 212 76 276 157 220 219 196 180 181 173
168 161 159 185 17 259 147 96 63 53 245 165 126 154 124 143 92 126 24 32 121 81 36 83 313 56 119 31 80 138 71 42 41 58 0 212 166 270 201 222 208 195 194 175 166
166 160 155 142 188 186 115 78 55 175 278 203 174 156 159 159 145 140 155 167 151 110 162 49 19 348 127 75 353 51 88 10 352 1 221 338 167 244 231 230 199 196 188 170 164
165 158 166 151 112 114 90 61 185 214 189 159 114 109 170 153 204 166 129 201 254 127 123 154 289 174 208 190 185 186 161 159 202 196 255 355 236 253 214 246 196 187 172 156 162
156 155 156 162 107 81 101 203 201 195 158 137 74 106 212 162 138 149 167 200 204 184 157 143 197 15 51 358 125 196 198 166 102 54 56 226 272 297 206 141 142 152 158 166 164
158 148 174 144 121 78 96 224 190 149 125 146 160 148 168 181 150 183 167 206 190 186 173 182 98 343 286 4 346 177 167 85 349 163 264 280 268 250 247 212 181 172 174 169 162
144 158 148 128 91 95 214 213 204 185 140 153 177 140 163 173 169 193 195 254 178 169 137 134 109 306 96 214 180 147 237 22 136 157 183 240 254 220 229 190 197 188 182 172 169
149 174 160 141 135 188 213 170 212 185 166 190 125 111 164 164 160 197 200 232 147 142 164 162 119 164 209 273 264 193 194 161 134 237 237 146 260 227 227 224 193 191 179 174 166
166 105 192 159 173 210 190 175 243 173 180 182 187 157 160 164 127 188 194 277 198 145 163 180 203 72 349 342 328 217 200 147 120 87 211 139 262 205 284 199 202 180 177 170 160
128 125 107 238 161 199 197 197 205 178 189 157 160 106 108 105 226 165 142 349 13 78 99 106 135 161 189 188 136 201 193 176 137 133 192 227 265 255 224 222 191 190 185 171 171
174 184 168 182 213 197 189 179 200 200 207 159 189 190 166 135 78 141 106 87 16 98 65 129 189 152 230 171 179 212 176 186 194 220 193 247 217 252 217 211 206 195 164 162 172
153 156 163 160 198 193 203 211 198 207 177 202 211 184 188 163 178 178 135 190 179 69 151 46 230 110 303 235 216 233 229 195 217 252 260 263 272 141 251 175 166 181 176 181 182
14 133 182 165 185 180 202 211 211 189 219 210 194 162 194 208 123 119 113 112 137 151 171 146 134 105 252 41 61 294 213 209 192 199 214 227 243 132 222 203 208 185 189 187 188